Radiation Dose at Monitoring Post of Fukushima Daini Nuclear Power Station
Date,Time,MP-1(microSv/h),MP-2(microSv/h),MP-3(microSv/h),MP-4(microSv/h),MP-5(microSv/h),MP-6(microSv/h),MP-7(microSv/h),Wind Direction,Wind Velocity(m/s),Rain
2017/08/20,00:00,0.335,0.206,0.336,0.317,0.312,0.164,0.105,north-northwest,5.5,No
2017/08/20,00:10,0.335,0.206,0.338,0.315,0.307,0.165,0.105,north,6.1,Yes
2017/08/20,00:20,0.336,0.207,0.338,0.314,0.314,0.166,0.105,north,6.0,No
2017/08/20,00:30,0.335,0.207,0.336,0.316,0.312,0.165,0.105,north,5.6,No
2017/08/20,00:40,0.336,0.208,0.339,0.313,0.307,0.166,0.105,north,4.3,No
2017/08/20,00:50,0.337,0.208,0.337,0.317,0.313,0.165,0.105,north,4.5,No
2017/08/20,01:00,0.333,0.207,0.337,0.316,0.309,0.164,0.103,north,5.0,No
2017/08/20,01:10,0.336,0.207,0.337,0.313,0.310,0.167,0.105,north,4.5,No
2017/08/20,01:20,0.335,0.206,0.336,0.317,0.313,0.165,0.104,north-northwest,4.8,No
2017/08/20,01:30,0.333,0.207,0.339,0.315,0.308,0.165,0.104,north,4.6,No
2017/08/20,01:40,0.338,0.209,0.337,0.315,0.312,0.165,0.104,north,5.2,Yes
2017/08/20,01:50,0.334,0.207,0.336,0.317,0.311,0.165,0.104,north,5.7,Yes
2017/08/20,02:00,0.336,0.207,0.339,0.314,0.308,0.165,0.105,north-northwest,5.1,Yes
2017/08/20,02:10,0.337,0.207,0.337,0.316,0.311,0.166,0.106,north,5.3,Yes
2017/08/20,02:20,0.336,0.208,0.338,0.316,0.310,0.166,0.105,north,5.3,Yes
2017/08/20,02:30,0.338,0.209,0.339,0.315,0.311,0.166,0.106,north-northwest,5.9,Yes
2017/08/20,02:40,0.335,0.207,0.334,0.316,0.312,0.167,0.106,north-northwest,5.7,Yes
2017/08/20,02:50,0.337,0.210,0.340,0.315,0.310,0.166,0.106,north-northwest,5.9,Yes
2017/08/20,03:00,0.337,0.209,0.338,0.316,0.314,0.168,0.107,north-northwest,5.9,Yes
2017/08/20,03:10,0.335,0.209,0.337,0.317,0.312,0.169,0.107,north-northwest,6.9,Yes
2017/08/20,03:20,0.337,0.211,0.340,0.315,0.311,0.168,0.108,north,6.1,Yes
2017/08/20,03:30,0.337,0.209,0.336,0.316,0.315,0.168,0.107,north,6.2,Yes
2017/08/20,03:40,0.335,0.209,0.340,0.315,0.311,0.167,0.107,north-northwest,6.2,No
2017/08/20,03:50,0.338,0.209,0.338,0.315,0.312,0.167,0.107,north-northwest,5.3,No
2017/08/20,04:00,0.333,0.210,0.336,0.317,0.313,0.168,0.106,north-northwest,6.2,No
2017/08/20,04:10,0.335,0.208,0.339,0.314,0.309,0.166,0.106,north-northwest,5.3,No
2017/08/20,04:20,0.336,0.206,0.336,0.314,0.312,0.165,0.105,north,5.9,No
2017/08/20,04:30,0.333,0.208,0.336,0.317,0.311,0.166,0.105,north-northwest,5.9,No
2017/08/20,04:40,0.336,0.207,0.337,0.312,0.309,0.165,0.105,north-northwest,5.9,No
2017/08/20,04:50,0.334,0.208,0.336,0.316,0.313,0.165,0.105,north-northwest,5.6,No
2017/08/20,05:00,0.334,0.206,0.339,0.315,0.309,0.165,0.105,north-northwest,5.9,No
2017/08/20,05:10,0.336,0.206,0.336,0.312,0.313,0.164,0.105,north-northwest,6.4,No
2017/08/20,05:20,0.332,0.208,0.336,0.317,0.311,0.165,0.104,north,6.0,No
2017/08/20,05:30,0.335,0.207,0.337,0.314,0.307,0.165,0.104,north-northwest,6.1,No
2017/08/20,05:40,0.334,0.206,0.335,0.312,0.312,0.163,0.105,north-northwest,5.3,No
2017/08/20,05:50,0.333,0.207,0.337,0.315,0.311,0.165,0.103,north-northwest,5.2,No
2017/08/20,06:00,0.336,0.206,0.337,0.314,0.309,0.164,0.104,north-northwest,5.0,No
2017/08/20,06:10,0.334,0.206,0.334,0.314,0.312,0.164,0.104,north,5.7,No
2017/08/20,06:20,0.334,0.206,0.337,0.315,0.308,0.165,0.104,north-northwest,6.1,No
2017/08/20,06:30,0.335,0.206,0.336,0.312,0.309,0.165,0.104,north-northwest,5.8,No
2017/08/20,06:40,0.333,0.207,0.335,0.314,0.311,0.164,0.104,north-northwest,4.7,No
2017/08/20,06:50,0.336,0.206,0.336,0.315,0.309,0.166,0.104,north,5.0,No
2017/08/20,07:00,0.335,0.206,0.334,0.312,0.309,0.164,0.104,north-northwest,5.0,No
2017/08/20,07:10,0.332,0.206,0.336,0.314,0.310,0.164,0.104,north,5.3,No
2017/08/20,07:20,0.335,0.205,0.336,0.315,0.307,0.166,0.104,north,5.0,No
2017/08/20,07:30,0.334,0.205,0.333,0.312,0.311,0.164,0.105,north,4.5,No
2017/08/20,07:40,0.332,0.207,0.339,0.315,0.311,0.164,0.103,north,5.0,No
2017/08/20,07:50,0.335,0.207,0.336,0.315,0.307,0.165,0.104,north,5.0,No
2017/08/20,08:00,0.335,0.207,0.334,0.313,0.311,0.165,0.104,north,4.7,No
2017/08/20,08:10,0.331,0.206,0.339,0.316,0.311,0.163,0.104,north,4.0,Yes
2017/08/20,08:20,0.337,0.205,0.336,0.315,0.308,0.166,0.105,north,3.9,Yes
2017/08/20,08:30,0.333,0.208,0.334,0.312,0.311,0.165,0.105,north,5.0,Yes
2017/08/20,08:40,0.332,0.207,0.338,0.315,0.311,0.163,0.104,north,5.4,No
2017/08/20,08:50,0.337,0.206,0.336,0.315,0.307,0.165,0.104,north,4.7,No
2017/08/20,09:00,0.335,0.208,0.334,0.313,0.309,0.166,0.104,north,3.7,No
2017/08/20,09:10,0.332,0.207,0.338,0.316,0.310,0.165,0.104,north,3.8,No
2017/08/20,09:20,0.336,0.206,0.337,0.316,0.309,0.164,0.105,north,3.4,No
2017/08/20,09:30,0.336,0.208,0.334,0.313,0.308,0.165,0.104,north,3.4,No
2017/08/20,09:40,0.333,0.207,0.338,0.311,0.312,0.165,0.103,north,3.1,No
2017/08/20,09:50,0.335,0.206,0.337,0.315,0.311,0.164,0.104,north-northeast,2.8,No
2017/08/20,10:00,0.337,0.205,0.336,0.315,0.308,0.165,0.103,north,2.9,No
2017/08/20,10:10,0.335,0.206,0.332,0.313,0.308,0.164,0.104,north-northeast,3.3,No
2017/08/20,10:20,0.334,0.206,0.336,0.312,0.307,0.165,0.102,north-northeast,4.0,No
2017/08/20,10:30,0.331,0.208,0.339,0.312,0.307,0.165,0.103,north-northeast,4.2,No
2017/08/20,10:40,0.331,0.207,0.337,0.313,0.311,0.166,0.103,north-northeast,4.2,No
2017/08/20,10:50,0.333,0.206,0.333,0.318,0.312,0.165,0.103,north-northeast,3.5,No
2017/08/20,11:00,0.336,0.205,0.339,0.316,0.312,0.164,0.105,north-northeast,4.6,No
2017/08/20,11:10,0.336,0.206,0.338,0.314,0.309,0.165,0.105,north-northeast,3.1,No
2017/08/20,11:20,0.333,0.208,0.337,0.315,0.309,0.165,0.104,north-northeast,4.3,No
2017/08/20,11:30,0.332,0.207,0.335,0.318,0.313,0.165,0.104,northeast,3.5,No
2017/08/20,11:40,0.335,0.207,0.338,0.316,0.312,0.166,0.103,north-northeast,3.9,No
2017/08/20,11:50,0.338,0.206,0.339,0.313,0.310,0.166,0.103,north-northeast,3.9,No
2017/08/20,12:00,0.336,0.206,0.335,0.313,0.308,0.165,0.104,north-northeast,4.5,No
2017/08/20,12:10,0.333,0.208,0.335,0.316,0.311,0.164,0.105,north-northeast,3.7,No
2017/08/20,12:20,0.336,0.209,0.339,0.318,0.313,0.165,0.105,north-northeast,4.0,No
2017/08/20,12:30,0.339,0.207,0.337,0.316,0.313,0.165,0.105,north-northeast,4.3,No
2017/08/20,12:40,0.337,0.207,0.335,0.314,0.309,0.166,0.105,north-northeast,4.7,No
2017/08/20,12:50,0.334,0.206,0.336,0.315,0.309,0.166,0.104,north-northeast,5.0,No
2017/08/20,13:00,0.335,0.206,0.339,0.319,0.308,0.165,0.104,north-northeast,5.3,No
2017/08/20,13:10,0.338,0.208,0.338,0.317,0.315,0.165,0.105,north-northeast,4.7,No
2017/08/20,13:20,0.337,0.207,0.337,0.314,0.313,0.166,0.106,north-northeast,4.5,No
2017/08/20,13:30,0.334,0.206,0.335,0.315,0.311,0.167,0.104,north-northeast,4.5,No
2017/08/20,13:40,0.337,0.205,0.341,0.318,0.309,0.166,0.104,north-northeast,4.1,No
2017/08/20,13:50,0.338,0.209,0.338,0.319,0.311,0.166,0.104,north-northeast,4.2,Yes
2017/08/20,14:00,0.337,0.208,0.337,0.314,0.314,0.165,0.105,north-northeast,4.3,No
2017/08/20,14:10,0.335,0.207,0.337,0.316,0.312,0.167,0.104,north-northeast,4.9,No
2017/08/20,14:20,0.338,0.207,0.340,0.319,0.310,0.166,0.104,north-northeast,3.4,No
2017/08/20,14:30,0.338,0.210,0.337,0.317,0.312,0.166,0.105,northeast,3.8,No
2017/08/20,14:40,0.336,0.209,0.336,0.315,0.314,0.166,0.105,north-northeast,3.4,No
2017/08/20,14:50,0.337,0.207,0.340,0.316,0.310,0.166,0.105,north-northeast,4.5,No
2017/08/20,15:00,0.339,0.207,0.339,0.320,0.310,0.167,0.104,north-northeast,4.3,No
2017/08/20,15:10,0.337,0.209,0.336,0.316,0.312,0.166,0.104,north-northeast,4.2,No
2017/08/20,15:20,0.335,0.209,0.337,0.316,0.313,0.165,0.105,north-northeast,3.4,No
2017/08/20,15:30,0.340,0.206,0.340,0.317,0.312,0.166,0.104,northeast,2.7,No
2017/08/20,15:40,0.339,0.208,0.338,0.319,0.308,0.167,0.104,east-northeast,1.5,No
2017/08/20,15:50,0.336,0.209,0.335,0.316,0.313,0.166,0.105,east-northeast,2.5,No
2017/08/20,16:00,0.336,0.208,0.340,0.315,0.313,0.165,0.105,east-northeast,2.8,No
2017/08/20,16:10,0.341,0.208,0.339,0.319,0.311,0.166,0.105,east-northeast,2.7,No
2017/08/20,16:20,0.339,0.210,0.337,0.318,0.309,0.167,0.104,east-northeast,2.0,No
2017/08/20,16:30,0.334,0.210,0.338,0.316,0.315,0.166,0.105,east-northeast,1.9,No
2017/08/20,16:40,0.337,0.206,0.342,0.315,0.313,0.166,0.105,east-northeast,2.2,No
2017/08/20,16:50,0.339,0.207,0.338,0.320,0.309,0.166,0.105,east,3.3,No
2017/08/20,17:00,0.338,0.209,0.335,0.317,0.312,0.166,0.104,east-northeast,2.5,No
2017/08/20,17:10,0.336,0.208,0.339,0.314,0.315,0.166,0.105,east-northeast,2.1,No
2017/08/20,17:20,0.340,0.207,0.340,0.319,0.311,0.166,0.105,northeast,2.2,No
2017/08/20,17:30,0.338,0.210,0.336,0.320,0.310,0.166,0.105,east-northeast,1.9,No
2017/08/20,17:40,0.337,0.209,0.338,0.317,0.314,0.167,0.105,east-northeast,2.1,No
2017/08/20,17:50,0.337,0.207,0.341,0.316,0.313,0.165,0.105,east-northeast,2.0,No
2017/08/20,18:00,0.340,0.209,0.338,0.318,0.309,0.167,0.104,east-northeast,1.4,No
2017/08/20,18:10,0.337,0.210,0.336,0.319,0.314,0.166,0.104,northeast,1.1,No
2017/08/20,18:20,0.336,0.208,0.341,0.316,0.314,0.165,0.106,east,1.4,No
2017/08/20,18:30,0.340,0.207,0.338,0.319,0.312,0.166,0.106,east-northeast,1.7,No
2017/08/20,18:40,0.337,0.209,0.336,0.319,0.311,0.166,0.104,east-northeast,1.9,No
2017/08/20,18:50,0.335,0.208,0.341,0.317,0.315,0.166,0.105,east,1.2,No
2017/08/20,19:00,0.339,0.208,0.339,0.319,0.312,0.166,0.105,east-northeast,1.2,No
2017/08/20,19:10,0.340,0.209,0.337,0.320,0.310,0.166,0.104,north-northeast,1.2,No
2017/08/20,19:20,0.337,0.208,0.340,0.316,0.315,0.167,0.106,north-northeast,1.2,No
2017/08/20,19:30,0.338,0.206,0.340,0.319,0.312,0.166,0.106,east-northeast,0.7,No
2017/08/20,19:40,0.340,0.209,0.339,0.319,0.309,0.167,0.104,east,0.8,No
2017/08/20,19:50,0.338,0.209,0.339,0.318,0.314,0.166,0.105,east-northeast,1.0,No
2017/08/20,20:00,0.335,0.208,0.342,0.317,0.313,0.165,0.106,-,CALM,No
2017/08/20,20:10,0.341,0.209,0.338,0.319,0.311,0.167,0.105,north,0.5,No
2017/08/20,20:20,0.339,0.208,0.339,0.317,0.313,0.168,0.105,north-northeast,1.1,No
2017/08/20,20:30,0.335,0.207,0.341,0.316,0.314,0.166,0.106,north,1.5,No
2017/08/20,20:40,0.341,0.210,0.338,0.319,0.311,0.166,0.105,north,0.9,No
2017/08/20,20:50,0.341,0.210,0.338,0.319,0.312,0.167,0.105,-,CALM,No
2017/08/20,21:00,0.336,0.208,0.341,0.315,0.314,0.165,0.105,-,CALM,No
2017/08/20,21:10,0.338,0.209,0.338,0.320,0.311,0.166,0.105,-,CALM,No
2017/08/20,21:20,0.339,0.208,0.336,0.318,0.311,0.167,0.105,north-northeast,1.4,No
2017/08/20,21:30,0.337,0.208,0.343,0.315,0.316,0.167,0.106,east,0.6,No
2017/08/20,21:40,0.338,0.209,0.339,0.320,0.312,0.167,0.105,-,CALM,No
2017/08/20,21:50,0.338,0.208,0.338,0.319,0.311,0.167,0.105,east-southeast,0.7,No
2017/08/20,22:00,0.337,0.207,0.340,0.316,0.315,0.166,0.105,-,CALM,No
2017/08/20,22:10,0.339,0.210,0.339,0.320,0.313,0.165,0.106,southeast,0.7,No
2017/08/20,22:20,0.340,0.208,0.337,0.320,0.310,0.166,0.105,east-southeast,1.0,No
2017/08/20,22:30,0.337,0.206,0.341,0.317,0.314,0.167,0.105,east-southeast,0.8,No
2017/08/20,22:40,0.336,0.208,0.338,0.318,0.312,0.166,0.105,east-southeast,0.5,No
2017/08/20,22:50,0.339,0.207,0.337,0.319,0.309,0.166,0.105,east-southeast,0.5,No
2017/08/20,23:00,0.337,0.208,0.342,0.317,0.313,0.167,0.105,-,CALM,No
2017/08/20,23:10,0.337,0.209,0.340,0.318,0.312,0.166,0.105,-,CALM,No
2017/08/20,23:20,0.340,0.207,0.338,0.321,0.309,0.167,0.104,-,CALM,No
2017/08/20,23:30,0.337,0.208,0.342,0.316,0.313,0.167,0.105,east,0.7,No
2017/08/20,23:40,0.336,0.210,0.339,0.317,0.314,0.166,0.105,east,0.5,No
2017/08/20,23:50,0.340,0.207,0.337,0.320,0.310,0.167,0.104,east,0.9,No
